Location: Unspecified
(48.7670°N, 0.0000°E)
Time: 08:10:44
(UTC+00:00)

Altair - Pass Details

Date: 04 October 2020
Orbit: 1502 x 1682 km, 47.2° (Epoch: 20 October)

Event Time Altitude Azimuth Distance (km) Brightness Sun altitude
Rises 20:06:19 0° 284° (WNW) 4,939 11.4 -25.7°
Reaches altitude 10° 20:13:48 10° 248° (WSW) 3,933 10.1 -26.9°
Maximum altitude 20:15:12 10° 240° (WSW) 3,899 10.0 -27.1°
Drops below altitude 10° 20:16:36 10° 232° (SW) 3,921 9.9 -27.3°
Sets 20:24:02 0° 196° (SSW) 4,864 10.0 -28.4°
